Flag for U.S.A. Weather past 2 weeks in Pasadena, California, U.S.A.

Now
50 °F

Heavy rain. Fog.


Feels Like: 48 °F
Forecast: 47 / 58 °F
Wind: 6 mph from Northwest

Location: Burbank-Glendale-Pasadena Airport

Current Time: Mar 1, 2015 at 3:27:23 AM

Latest Report: Mar 1, 2015 at 2:53 AM


Visibility: 3 mi

Pressure: 29.89 "Hg

Humidity: 86%

Dew point: 46 °F

Location of PasadenaLocation

Historic Weather in Pasadena — Graph

°F

Pasadena temperature yesterday

Maximum temperature yesterday: 60 °F (at 11:53 AM)
Minimum temperature yesterday: 51 °F (at 9:53 PM)
Average temperature yesterday: 56 °F

Past Weeks' High & Low Weather Summary

 TemperatureHumidityPressure
High84 °F (Feb 14, 1:53 PM)100% (Feb 18, 6:55 AM)30.21 "Hg (Feb 18, 6:55 AM)
Low43 °F (Feb 24, 3:53 AM)11% (Feb 14, 2:53 PM)29.71 "Hg (Feb 27, 11:53 PM)
Average59 °F63%29.96 "Hg
* Reported Feb 14 1:53 AM — Mar 1 1:53 AM, Pasadena, Weather by CustomWeather, © 2015

Note: Actual official high and low records may vary slightly from our data, if they occured in-between our weather recording intervals... More about our weather records

Advertising

Pasadena weather history for previous 24 hours

 ConditionsComfort  
Time TempWeatherWind HumidityBarometerVisibility
1:53 AM
Sun, Mar 1
50 °FMostly cloudy.3 mph89%29.89 "Hg10 mi
12:53 AM51 °FRain. Fog.No wind86%29.89 "Hg6 mi
11:53 PM
Sat, Feb 28
51 °FPartly cloudy.No wind83%29.89 "Hg10 mi
10:53 PM51 °FOvercast.No wind80%29.88 "Hg10 mi
9:53 PM51 °FRain. Fog.12 mph86%29.88 "Hg6 mi
8:53 PM54 °FLight rain. Mostly cloudy.3 mph69%29.86 "Hg10 mi
7:53 PM55 °FMostly cloudy.6 mph69%29.85 "Hg10 mi
6:53 PM56 °FMostly cloudy.7 mph65%29.84 "Hg10 mi
5:53 PM56 °FPassing clouds.8 mph65%29.83 "Hg10 mi
4:53 PM58 °FOvercast.10 mph60%29.81 "Hg10 mi
3:53 PM58 °FSunny.14 mph58%29.80 "Hg10 mi
2:53 PM60 °FScattered clouds.14 mph52%29.79 "Hg10 mi
1:53 PM59 °FMostly cloudy.13 mph51%29.78 "Hg10 mi
12:53 PM59 °FLight rain. Partly sunny.13 mph49%29.80 "Hg10 mi
11:53 AM60 °FScattered clouds.7 mph47%29.82 "Hg10 mi
10:53 AM59 °FBroken clouds.9 mph54%29.83 "Hg10 mi
9:53 AM56 °FSunny.6 mph65%29.82 "Hg10 mi
8:53 AM55 °FMostly cloudy.5 mph64%29.80 "Hg10 mi
7:53 AM54 °FPartly sunny.No wind62%29.80 "Hg10 mi
6:53 AM53 °FOvercast.No wind66%29.76 "Hg10 mi
5:53 AM53 °FOvercast.3 mph66%29.75 "Hg10 mi
4:53 AM54 °FOvercast.6 mph69%29.73 "Hg10 mi
3:53 AM54 °FOvercast.6 mph72%29.72 "Hg10 mi
Weather by CustomWeather, © 2015

See weather overviewHow to use our weather pages